Location: Acton
(51.4942°N, 0.2232°W)
Time: 06:18:38
(UTC+00:00)

Exosat Rocket - Pass Details

Date: 18 September 2020
Orbit: 761 x 2514 km, 72.3° (Epoch: 18 October)

Event Time Altitude Azimuth Distance (km) Brightness Sun altitude
Rises 20:59:28 0° 213° (SSW) 3,582 6.9 -25.4°
Reaches altitude 10° 21:02:08 10° 215° (SW) 2,499 6.1 -25.8°
Maximum altitude 21:07:31 70° 300° (WNW) 824 3.7 -26.4°
Drops below altitude 10° 21:12:32 10° 25° (NNE) 2,321 6.2 -27.0°
Sets 21:14:55 0° 28° (NNE) 3,305 7.0 -27.2°
